When you browse on this site, cookies collect data to enhance your experience and personalize the content and advertising you see.
Visit our Privacy Policy to learn more. By continuing to use the site, you agree to this use of cookies and data.
  • In Germany
  • List of Countries
  • For 7 days
  • Water Temperature
  • Weather Map
  • Weather Widgets
  • user-avatar
    Login

    Hourly Weather Sydney

    Today, 18 October, Friday

    Time Temperature Precipitation Wind Pressure Humidity
    00:00 +13°C° 0 mm 5 mps 760 mmHg 40%
    01:00 +12°C° 0 mm 5 mps 760 mmHg 42%
    02:00 +12°C° 0 mm 5 mps 760 mmHg 44%
    03:00 +12°C° 0 mm 5 mps 760 mmHg 47%
    04:00 +12°C° 0 mm 4 mps 760 mmHg 52%
    05:00 +12°C° 0 mm 4 mps 761 mmHg 50%
    06:00 +13°C° 0 mm 4 mps 761 mmHg 48%
    07:00 +14°C° 0 mm 5 mps 762 mmHg 46%
    08:00 +18°C° 0 mm 4 mps 762 mmHg 40%
    09:00 +20°C° 0 mm 3 mps 762 mmHg 34%
    10:00 +24°C° 0 mm 1 mps 762 mmHg 27%
    11:00 +25°C° 0 mm 2 mps 761 mmHg 24%
    12:00 +26°C° 0 mm 3 mps 761 mmHg 21%
    13:00 +28°C° 0 mm 4 mps 760 mmHg 18%
    14:00 +27°C° 0 mm 5 mps 760 mmHg 20%
    15:00 +27°C° 0 mm 5 mps 759 mmHg 23%
    16:00 +26°C° 0 mm 6 mps 759 mmHg 25%
    17:00 +23°C° 0 mm 5 mps 759 mmHg 31%
    18:00 +21°C° 0 mm 4 mps 760 mmHg 37%
    19:00 +19°C° 0 mm 3 mps 760 mmHg 43%
    20:00 +18°C° 0 mm 3 mps 760 mmHg 43%
    21:00 +18°C° 0 mm 2 mps 761 mmHg 44%
    22:00 +17°C° 0 mm 2 mps 761 mmHg 45%
    23:00 +16°C° 0 mm 2 mps 761 mmHg 44%

    Tomorrow, 19 October, Saturday

    Time Temperature Precipitation Wind Pressure Humidity
    00:00 +15°C° 0 mm 2 mps 760 mmHg 43%
    01:00 +14°C° 0 mm 3 mps 760 mmHg 42%
    02:00 +13°C° 0 mm 3 mps 760 mmHg 42%
    03:00 +13°C° 0 mm 3 mps 760 mmHg 41%
    04:00 +13°C° 0 mm 3 mps 759 mmHg 40%
    05:00 +14°C° 0 mm 4 mps 760 mmHg 37%
    06:00 +15°C° 0 mm 4 mps 760 mmHg 35%
    07:00 +16°C° 0 mm 5 mps 760 mmHg 32%
    08:00 +20°C° 0 mm 4 mps 760 mmHg 28%
    09:00 +23°C° 0 mm 4 mps 760 mmHg 24%
    10:00 +27°C° 0 mm 3 mps 759 mmHg 21%
    11:00 +28°C° 0 mm 4 mps 759 mmHg 19%
    12:00 +29°C° 0 mm 5 mps 758 mmHg 18%
    13:00 +29°C° 0 mm 6 mps 758 mmHg 17%
    14:00 +28°C° 0 mm 6 mps 757 mmHg 22%
    15:00 +26°C° 0 mm 6 mps 757 mmHg 28%
    16:00 +24°C° 0 mm 6 mps 757 mmHg 33%
    17:00 +22°C° 0.1 mm 6 mps 758 mmHg 38%
    18:00 +21°C° 0.1 mm 6 mps 760 mmHg 43%
    19:00 +19°C° 0.1 mm 6 mps 761 mmHg 48%
    20:00 +17°C° 0 mm 6 mps 762 mmHg 46%
    21:00 +15°C° 0 mm 6 mps 762 mmHg 45%
    22:00 +14°C° 0 mm 7 mps 763 mmHg 43%
    23:00 +13°C° 0 mm 6 mps 763 mmHg 45%

    Day after tomorrow, 20 October, Sunday

    Time Temperature Precipitation Wind Pressure Humidity
    00:00 +11°C° 0 mm 6 mps 763 mmHg 47%
    01:00 +10°C° 0 mm 5 mps 763 mmHg 49%
    02:00 +10°C° 0 mm 5 mps 763 mmHg 52%
    03:00 +10°C° 0 mm 4 mps 763 mmHg 54%
    04:00 +10°C° 0 mm 4 mps 764 mmHg 56%
    05:00 +11°C° 0 mm 4 mps 764 mmHg 54%
    06:00 +11°C° 0 mm 3 mps 765 mmHg 51%
    07:00 +12°C° 0 mm 3 mps 765 mmHg 48%
    08:00 +16°C° 0 mm 3 mps 765 mmHg 42%
    09:00 +18°C° 0 mm 2 mps 765 mmHg 35%
    10:00 +21°C° 0 mm 2 mps 765 mmHg 28%
    11:00 +23°C° 0 mm 2 mps 765 mmHg 27%
    12:00 +22°C° 0 mm 3 mps 764 mmHg 26%
    13:00 +24°C° 0 mm 3 mps 764 mmHg 25%
    14:00 +22°C° 0 mm 3 mps 764 mmHg 32%
    15:00 +21°C° 0 mm 4 mps 764 mmHg 38%
    16:00 +20°C° 0 mm 4 mps 764 mmHg 45%
    17:00 +18°C° 0 mm 4 mps 765 mmHg 52%
    18:00 +17°C° 0 mm 3 mps 766 mmHg 60%
    19:00 +14°C° 0 mm 3 mps 767 mmHg 67%
    20:00 +15°C° 0 mm 2 mps 767 mmHg 67%
    21:00 +15°C° 0 mm 2 mps 768 mmHg 67%
    22:00 +15°C° 0 mm 2 mps 768 mmHg 67%
    23:00 +15°C° 0 mm 2 mps 768 mmHg 66%

    21 October, Monday

    Time Temperature Precipitation Wind Pressure Humidity
    00:00 +15°C° 0 mm 1 mps 768 mmHg 64%
    01:00 +15°C° 0 mm 1 mps 768 mmHg 63%
    02:00 +15°C° 0 mm 1 mps 768 mmHg 63%
    03:00 +15°C° 0 mm 1 mps 768 mmHg 64%
    04:00 +13°C° 0 mm 0 mps 768 mmHg 64%
    05:00 +14°C° 0 mm 0 mps 768 mmHg 60%
    06:00 +16°C° 0 mm 1 mps 769 mmHg 57%
    07:00 +18°C° 0 mm 1 mps 769 mmHg 53%
    08:00 +20°C° 0 mm 1 mps 769 mmHg 48%
    09:00 +22°C° 0 mm 1 mps 769 mmHg 42%
    10:00 +24°C° 0 mm 1 mps 769 mmHg 36%
    11:00 +25°C° 0 mm 2 mps 768 mmHg 35%
    12:00 +25°C° 0 mm 3 mps 768 mmHg 34%
    13:00 +26°C° 0 mm 4 mps 768 mmHg 32%
    14:00 +25°C° 0 mm 4 mps 767 mmHg 36%
    15:00 +23°C° 0 mm 4 mps 767 mmHg 41%
    16:00 +22°C° 0 mm 5 mps 767 mmHg 45%
    17:00 +20°C° 0 mm 5 mps 767 mmHg 53%
    18:00 +19°C° 0 mm 4 mps 768 mmHg 62%
    19:00 +17°C° 0 mm 4 mps 768 mmHg 71%
    20:00 +16°C° 0 mm 3 mps 768 mmHg 75%
    21:00 +16°C° 0 mm 2 mps 769 mmHg 79%
    22:00 +15°C° 0 mm 2 mps 769 mmHg 84%
    23:00 +15°C° 0 mm 2 mps 769 mmHg 85%

    22 October, Tuesday

    Time Temperature Precipitation Wind Pressure Humidity
    00:00 +15°C° 0 mm 1 mps 769 mmHg 87%
    01:00 +14°C° 0 mm 1 mps 768 mmHg 88%
    02:00 +14°C° 0 mm 1 mps 768 mmHg 89%
    03:00 +13°C° 0 mm 1 mps 768 mmHg 89%
    04:00 +13°C° 0 mm 1 mps 768 mmHg 89%
    05:00 +14°C° 0 mm 2 mps 768 mmHg 84%
    06:00 +15°C° 0 mm 2 mps 768 mmHg 78%
    07:00 +16°C° 0 mm 2 mps 769 mmHg 72%
    08:00 +19°C° 0 mm 2 mps 768 mmHg 61%
    09:00 +23°C° 0 mm 2 mps 768 mmHg 50%
    10:00 +25°C° 0 mm 2 mps 768 mmHg 38%
    11:00 +26°C° 0 mm 3 mps 768 mmHg 36%
    12:00 +27°C° 0 mm 4 mps 767 mmHg 35%
    13:00 +28°C° 0 mm 5 mps 767 mmHg 33%
    14:00 +27°C° 0 mm 5 mps 766 mmHg 35%
    15:00 +26°C° 0 mm 6 mps 766 mmHg 38%
    16:00 +24°C° 0 mm 6 mps 765 mmHg 41%
    17:00 +22°C° 0 mm 6 mps 766 mmHg 49%
    18:00 +20°C° 0 mm 6 mps 766 mmHg 57%
    19:00 +17°C° 0 mm 5 mps 767 mmHg 65%
    20:00 +17°C° 0 mm 5 mps 767 mmHg 69%
    21:00 +17°C° 0 mm 4 mps 767 mmHg 73%
    22:00 +16°C° 0 mm 3 mps 768 mmHg 77%
    23:00 +16°C° 0 mm 3 mps 767 mmHg 79%

    23 October, Wednesday

    Time Temperature Precipitation Wind Pressure Humidity
    00:00 +16°C° 0 mm 3 mps 767 mmHg 81%
    01:00 +14°C° 0 mm 3 mps 767 mmHg 83%
    02:00 +15°C° 0 mm 2 mps 767 mmHg 84%
    03:00 +14°C° 0 mm 2 mps 767 mmHg 85%
    04:00 +14°C° 0 mm 2 mps 766 mmHg 86%
    05:00 +15°C° 0 mm 2 mps 767 mmHg 79%
    06:00 +16°C° 0 mm 2 mps 767 mmHg 73%
    07:00 +18°C° 0 mm 2 mps 767 mmHg 67%
    08:00 +21°C° 0 mm 2 mps 767 mmHg 53%
    09:00 +24°C° 0 mm 3 mps 767 mmHg 40%
    10:00 +27°C° 0 mm 3 mps 766 mmHg 27%
    11:00 +29°C° 0 mm 4 mps 766 mmHg 26%
    12:00 +30°C° 0 mm 5 mps 765 mmHg 25%
    13:00 +32°C° 0 mm 6 mps 765 mmHg 24%
    14:00 +30°C° 0 mm 6 mps 764 mmHg 29%
    15:00 +29°C° 0 mm 6 mps 764 mmHg 34%
    16:00 +28°C° 0 mm 7 mps 763 mmHg 39%
    17:00 +26°C° 0 mm 6 mps 763 mmHg 46%
    18:00 +23°C° 0 mm 6 mps 764 mmHg 52%
    19:00 +21°C° 0 mm 6 mps 764 mmHg 58%
    20:00 +20°C° 0 mm 5 mps 764 mmHg 60%
    21:00 +20°C° 0 mm 5 mps 764 mmHg 62%
    22:00 +19°C° 0 mm 4 mps 765 mmHg 63%
    23:00 +19°C° 0 mm 3 mps 764 mmHg 64%
    Show more